Weather in Savudrija

Croatia     45°29′21″N   13°30′11″E
temp.,
°C
wind,
m/s
gust,
m/s
humid.,
%
clouds,
%
prec.,
mm/h
press.,
hPa
HPBL,
m
20 june, sun
sun2023:00+23ese117711 0.0 101311
02:00+23ene22761 0.0 101220
05:00+23nw01810 0.0 101312
08:00+24e11775 0.0 101339
11:00+24nw227459 0.0 1012194
14:00+25wsw4471100 0.0 1011205
17:00+25w226748 0.0 1011142
20:00+25ese117323 0.0 100911
21 june, mon
mon2123:00+24ese22748 0.0 100916
02:00+23ese22775 0.0 100917
05:00+23n337483 0.0 100957
08:00+24sse35715 0.0 1008103
11:00+24sw45792 0.0 1009287
14:00+24ssw45760 0.0 1009297
17:00+25ssw34720 0.0 1009173
20:00+25s44710 0.0 100859
22 june, tue
tue2223:00+23se33770 0.0 100954
02:00+23ne33760 0.0 100937
05:00+22ese22680 0.0 100960
08:00+22sse12660 0.0 1010133
11:00+24sw33750 0.0 1011282
14:00+24sw44790 0.0 1011333
17:00+25sw33725 0.0 1011234
20:00+25sse22695 0.0 101124
23 june, wed
wed2323:00+23se22695 0.0 101214
02:00+23ne11710 0.0 101317
05:00+22ese22670 0.0 101352
08:00+23se11660 0.0 1014103
11:00+24wnw21645 0.0 1015217
14:00+24wnw22649 0.0 1015189
17:00+25sw22635 0.0 1015189
20:00+25ene22705 0.0 101513
24 june, thu
thu2423:00+24ese2274100 0.0 101517
02:00+23n227440 0.0 101537
05:00+23se22680 0.0 101433
08:00+23s23640 0.1 1015117
11:00+24sw33675 0.0 1016249
14:00+24w237165 0.0 1015241
17:00+25nw11676 0.0 1014171
20:00+25sse11710 0.0 101342